TimeSAST,TemperatureF,Dew PointF,Humidity,Sea Level PressureIn,VisibilityMPH,Wind Direction,Wind SpeedMPH,Gust SpeedMPH,PrecipitationIn,Events,Conditions,WindDirDegrees,DateUTC
12:00 AM,78.8,64.4,61,29.83,-9999.0,North,10.4,-,N/A,,Unknown,10,2013-01-18 22:00:00
1:00 AM,73.4,64.4,73,29.86,-9999.0,WNW,19.6,-,N/A,,Unknown,290,2013-01-18 23:00:00
2:00 AM,73,66,72,,25,ESE,11.5,,,Thunderstorm,Thunderstorm,110,2013-01-19 00:00:00
2:00 AM,71.6,64.4,78,29.89,6.2,ESE,10.4,-,N/A,Thunderstorm,Thunderstorm,110,2013-01-19 00:00:00
3:00 AM,71.6,62.6,73,29.86,6.2,ENE,8.1,-,N/A,,Partly Cloudy,60,2013-01-19 01:00:00
4:00 AM,71.6,57.2,60,29.83,6.2,NNE,9.2,-,N/A,,Partly Cloudy,20,2013-01-19 02:00:00
5:00 AM,73,64,65,,25,North,11.5,,,,Scattered Clouds,350,2013-01-19 03:00:00
5:00 AM,71.6,62.6,73,29.83,6.2,North,11.5,-,N/A,,Partly Cloudy,350,2013-01-19 03:00:00
6:00 AM,71.6,62.6,73,29.86,-9999.0,ESE,4.6,-,N/A,,Unknown,120,2013-01-19 04:00:00
7:00 AM,75.2,64.4,69,29.86,6.2,ESE,3.5,-,N/A,,Partly Cloudy,110,2013-01-19 05:00:00
8:00 AM,81,63,45,,25,NE,5.8,,,,Scattered Clouds,50,2013-01-19 06:00:00
8:00 AM,80.6,62.6,54,29.89,-9999.0,NE,4.6,-,N/A,,Clear,50,2013-01-19 06:00:00
9:00 AM,82.4,59.0,45,29.89,-9999.0,NNE,4.6,-,N/A,,Clear,20,2013-01-19 07:00:00
10:00 AM,86.0,60.8,43,29.89,-9999.0,North,4.6,-,N/A,,Clear,360,2013-01-19 08:00:00
11:00 AM,87,60,30,,25,NNE,4.6,,,,Scattered Clouds,20,2013-01-19 09:00:00
11:00 AM,86.0,59.0,40,29.89,6.2,NNE,3.5,-,N/A,,Partly Cloudy,20,2013-01-19 09:00:00
12:00 PM,89.6,60.8,38,29.86,6.2,NNE,5.8,-,N/A,,Partly Cloudy,20,2013-01-19 10:00:00
1:00 PM,91.4,57.2,31,29.86,6.2,NNE,4.6,-,N/A,,Partly Cloudy,20,2013-01-19 11:00:00
2:00 PM,93,56,19,,25,NW,6.9,,,,Partly Cloudy,320,2013-01-19 12:00:00
2:00 PM,91.4,55.4,29,29.83,6.2,NW,5.8,-,N/A,,Scattered Clouds,320,2013-01-19 12:00:00
3:00 PM,93.2,55.4,28,29.77,-9999.0,NE,4.6,-,N/A,,Unknown,50,2013-01-19 13:00:00
4:00 PM,93.2,55.4,28,29.77,-9999.0,NW,4.6,-,N/A,,Unknown,320,2013-01-19 14:00:00
5:00 PM,94,55,18,,,SW,11.5,,,,,220,2013-01-19 15:00:00
5:00 PM,93.2,53.6,26,29.74,-9999.0,SW,10.4,-,N/A,,Unknown,220,2013-01-19 15:00:00
6:00 PM,93.2,51.8,24,29.74,-9999.0,South,6.9,-,N/A,,Unknown,180,2013-01-19 16:00:00
7:00 PM,91.4,51.8,26,29.74,-9999.0,South,4.6,-,N/A,,Unknown,180,2013-01-19 17:00:00
8:00 PM,89,58,25,,,ESE,4.6,,,,,110,2013-01-19 18:00:00
8:00 PM,87.8,57.2,35,29.74,-9999.0,ESE,3.5,-,N/A,,Unknown,110,2013-01-19 18:00:00
9:00 PM,80.6,59.0,48,29.80,-9999.0,ENE,9.2,-,N/A,,Unknown,70,2013-01-19 19:00:00
10:00 PM,80.6,59.0,48,29.80,-9999.0,NNE,6.9,-,N/A,,Unknown,30,2013-01-19 20:00:00
11:00 PM,79,61,43,,,NNW,2.3,,,,,330,2013-01-19 21:00:00
11:00 PM,78.8,59.0,51,29.80,-9999.0,NNW,2.3,-,N/A,,Unknown,330,2013-01-19 21:00:00